Tiempo cada hora 1-e Yuldybaevo

Hoy, 22 Junio, Martes

Tiempo Temperatura Precipitaciones Viento Presión Humedad
00:00 +16°C° 0 mm 0 mps 743 mmHg 75%
01:00 +16°C° 0 mm 0 mps 743 mmHg 75%
02:00 +16°C° 0 mm 0 mps 743 mmHg 78%
03:00 +15°C° 0 mm 0 mps 743 mmHg 81%
04:00 +15°C° 0 mm 0 mps 743 mmHg 82%
05:00 +17°C° 0 mm 0 mps 743 mmHg 78%
06:00 +19°C° 0 mm 0 mps 743 mmHg 74%
07:00 +23°C° 0 mm 1 mps 743 mmHg 70%
08:00 +24°C° 0 mm 1 mps 743 mmHg 66%
09:00 +26°C° 0 mm 2 mps 743 mmHg 62%
10:00 +27°C° 0 mm 2 mps 743 mmHg 59%
11:00 +29°C° 0 mm 3 mps 743 mmHg 53%
12:00 +30°C° 0 mm 3 mps 743 mmHg 47%
13:00 +32°C° 0 mm 4 mps 743 mmHg 41%
14:00 +32°C° 0 mm 4 mps 743 mmHg 40%
15:00 +32°C° 0 mm 5 mps 743 mmHg 39%
16:00 +33°C° 0 mm 5 mps 743 mmHg 38%
17:00 +30°C° 0 mm 4 mps 742 mmHg 45%
18:00 +29°C° 0 mm 4 mps 742 mmHg 51%
19:00 +28°C° 0 mm 3 mps 742 mmHg 58%
20:00 +26°C° 0 mm 2 mps 742 mmHg 65%
21:00 +24°C° 0 mm 2 mps 742 mmHg 71%
22:00 +22°C° 0 mm 1 mps 742 mmHg 77%
23:00 +22°C° 0 mm 1 mps 742 mmHg 79%

Mañana, 23 Junio, Miércoles

Tiempo Temperatura Precipitaciones Viento Presión Humedad
00:00 +19°C° 0 mm 0 mps 742 mmHg 82%
01:00 +19°C° 0 mm 0 mps 742 mmHg 84%
02:00 +19°C° 0 mm 0 mps 742 mmHg 84%
03:00 +19°C° 0 mm 0 mps 741 mmHg 85%
04:00 +18°C° 0 mm 0 mps 741 mmHg 85%
05:00 +22°C° 0 mm 1 mps 741 mmHg 80%
06:00 +24°C° 0 mm 1 mps 741 mmHg 75%
07:00 +25°C° 0 mm 1 mps 741 mmHg 71%
08:00 +26°C° 0.2 mm 2 mps 741 mmHg 69%
09:00 +27°C° 0.2 mm 3 mps 741 mmHg 67%
10:00 +28°C° 0.2 mm 4 mps 741 mmHg 65%
11:00 +30°C° 0.1 mm 4 mps 741 mmHg 56%
12:00 +32°C° 0.1 mm 5 mps 741 mmHg 48%
13:00 +33°C° 0.1 mm 6 mps 740 mmHg 39%
14:00 +30°C° 0.6 mm 5 mps 740 mmHg 49%
15:00 +28°C° 0.6 mm 5 mps 741 mmHg 59%
16:00 +26°C° 0.6 mm 4 mps 741 mmHg 69%
17:00 +23°C° 3 mm 4 mps 741 mmHg 77%
18:00 +21°C° 3 mm 3 mps 740 mmHg 84%
19:00 +19°C° 3 mm 2 mps 740 mmHg 92%
20:00 +18°C° 0.1 mm 2 mps 740 mmHg 92%
21:00 +19°C° 0.1 mm 1 mps 741 mmHg 91%
22:00 +18°C° 0.1 mm 1 mps 741 mmHg 90%
23:00 +18°C° 0.2 mm 1 mps 741 mmHg 91%

Pasado mañana, 24 Junio, Jueves

Tiempo Temperatura Precipitaciones Viento Presión Humedad
00:00 +18°C° 0.2 mm 1 mps 741 mmHg 92%
01:00 +18°C° 0.2 mm 1 mps 740 mmHg 93%
02:00 +16°C° 0 mm 1 mps 741 mmHg 94%
03:00 +16°C° 0 mm 1 mps 741 mmHg 94%
04:00 +16°C° 0 mm 1 mps 741 mmHg 95%
05:00 +17°C° 0 mm 2 mps 741 mmHg 93%
06:00 +18°C° 0 mm 2 mps 741 mmHg 92%
07:00 +19°C° 0 mm 3 mps 741 mmHg 91%
08:00 +19°C° 0 mm 3 mps 742 mmHg 86%
09:00 +20°C° 0 mm 2 mps 742 mmHg 81%
10:00 +21°C° 0 mm 2 mps 742 mmHg 77%
11:00 +21°C° 0 mm 2 mps 742 mmHg 73%
12:00 +23°C° 0 mm 2 mps 742 mmHg 70%
13:00 +24°C° 0 mm 2 mps 742 mmHg 67%
14:00 +25°C° 0 mm 1 mps 742 mmHg 64%
15:00 +25°C° 0 mm 1 mps 742 mmHg 61%
16:00 +26°C° 0 mm 1 mps 741 mmHg 58%
17:00 +26°C° 0 mm 1 mps 741 mmHg 62%
18:00 +25°C° 0 mm 1 mps 741 mmHg 66%
19:00 +25°C° 0 mm 1 mps 741 mmHg 71%
20:00 +23°C° 0 mm 1 mps 741 mmHg 75%
21:00 +19°C° 0 mm 0 mps 740 mmHg 80%
22:00 +17°C° 0 mm 0 mps 740 mmHg 85%
23:00 +17°C° 0 mm 0 mps 740 mmHg 86%

25 Junio, Viernes

Tiempo Temperatura Precipitaciones Viento Presión Humedad
00:00 +16°C° 0 mm 0 mps 740 mmHg 87%
01:00 +16°C° 0 mm 0 mps 740 mmHg 89%
02:00 +15°C° 0 mm 0 mps 740 mmHg 89%
03:00 +15°C° 0 mm 0 mps 740 mmHg 90%
04:00 +15°C° 0 mm 0 mps 739 mmHg 90%
05:00 +17°C° 0 mm 0 mps 739 mmHg 84%
06:00 +19°C° 0 mm 0 mps 739 mmHg 78%
07:00 +21°C° 0 mm 0 mps 739 mmHg 72%
08:00 +25°C° 0 mm 1 mps 739 mmHg 67%
09:00 +26°C° 0 mm 2 mps 739 mmHg 62%
10:00 +28°C° 0 mm 2 mps 739 mmHg 58%
11:00 +29°C° 0 mm 3 mps 738 mmHg 54%
12:00 +30°C° 0 mm 3 mps 738 mmHg 51%
13:00 +31°C° 0 mm 3 mps 738 mmHg 47%
14:00 +31°C° 0 mm 3 mps 738 mmHg 49%
15:00 +30°C° 0 mm 3 mps 738 mmHg 51%
16:00 +30°C° 0 mm 3 mps 738 mmHg 53%
17:00 +29°C° 0 mm 3 mps 738 mmHg 57%
18:00 +28°C° 0 mm 2 mps 738 mmHg 62%
19:00 +28°C° 0 mm 2 mps 737 mmHg 66%
20:00 +26°C° 0.1 mm 2 mps 737 mmHg 73%
21:00 +24°C° 0.1 mm 1 mps 737 mmHg 79%
22:00 +23°C° 0.1 mm 1 mps 737 mmHg 85%
23:00 +22°C° 0 mm 1 mps 737 mmHg 86%

26 Junio, Sábado

Tiempo Temperatura Precipitaciones Viento Presión Humedad
00:00 +20°C° 0 mm 0 mps 737 mmHg 88%
01:00 +19°C° 0 mm 0 mps 737 mmHg 89%
02:00 +19°C° 0 mm 0 mps 737 mmHg 90%
03:00 +18°C° 0 mm 0 mps 737 mmHg 91%
04:00 +18°C° 0 mm 0 mps 737 mmHg 91%
05:00 +20°C° 0 mm 0 mps 737 mmHg 87%
06:00 +21°C° 0 mm 0 mps 737 mmHg 82%
07:00 +23°C° 0 mm 0 mps 737 mmHg 78%
08:00 +26°C° 0 mm 1 mps 737 mmHg 71%
09:00 +28°C° 0 mm 2 mps 737 mmHg 64%
10:00 +29°C° 0 mm 2 mps 737 mmHg 57%
11:00 +30°C° 0.1 mm 2 mps 737 mmHg 53%
12:00 +31°C° 0.1 mm 2 mps 737 mmHg 49%
13:00 +32°C° 0.1 mm 2 mps 736 mmHg 45%
14:00 +33°C° 0 mm 3 mps 736 mmHg 47%
15:00 +31°C° 0 mm 3 mps 736 mmHg 49%
16:00 +31°C° 0 mm 3 mps 736 mmHg 52%
17:00 +30°C° 0 mm 3 mps 736 mmHg 56%
18:00 +29°C° 0 mm 3 mps 736 mmHg 60%
19:00 +28°C° 0 mm 3 mps 736 mmHg 65%
20:00 +27°C° 0.3 mm 2 mps 736 mmHg 72%
21:00 +25°C° 0.3 mm 2 mps 736 mmHg 80%
22:00 +23°C° 0.3 mm 1 mps 736 mmHg 88%
23:00 +23°C° 0.1 mm 2 mps 736 mmHg 90%

27 Junio, Domingo

Tiempo Temperatura Precipitaciones Viento Presión Humedad
00:00 +21°C° 0.1 mm 2 mps 736 mmHg 91%
01:00 +21°C° 0.1 mm 2 mps 735 mmHg 93%
02:00 +20°C° 0 mm 2 mps 736 mmHg 94%
03:00 +21°C° 0 mm 1 mps 736 mmHg 94%
04:00 +21°C° 0 mm 1 mps 736 mmHg 94%
05:00 +22°C° 0 mm 1 mps 736 mmHg 91%
06:00 +23°C° 0 mm 1 mps 736 mmHg 88%
07:00 +24°C° 0 mm 1 mps 736 mmHg 85%
08:00 +26°C° 0 mm 2 mps 736 mmHg 73%
09:00 +28°C° 0 mm 3 mps 736 mmHg 61%
10:00 +30°C° 0 mm 4 mps 736 mmHg 49%
11:00 +32°C° 0 mm 4 mps 736 mmHg 46%
12:00 +32°C° 0 mm 4 mps 735 mmHg 43%
13:00 +33°C° 0 mm 3 mps 735 mmHg 40%
14:00 +33°C° 0 mm 4 mps 735 mmHg 41%
15:00 +33°C° 0 mm 4 mps 735 mmHg 42%
16:00 +33°C° 0 mm 5 mps 735 mmHg 43%
17:00 +30°C° 0.1 mm 4 mps 734 mmHg 52%
18:00 +28°C° 0.1 mm 4 mps 734 mmHg 62%
19:00 +26°C° 0.1 mm 3 mps 734 mmHg 71%
20:00 +25°C° 0.6 mm 3 mps 734 mmHg 78%
21:00 +23°C° 0.6 mm 2 mps 734 mmHg 85%
22:00 +21°C° 0.6 mm 1 mps 734 mmHg 91%
23:00 +21°C° 0 mm 1 mps 733 mmHg 93%
Mostrar más

Necesitamos Su Consentimiento

Meteoprog y nuestros Proveedores de Servicios pueden almacenar y acceder a sus datos personales como cookies, identificadores de dispositivo u otras tecnologías similares de su dispositivo y procesar dichos datos para personalizar contenido y anuncios, además de ofrecer funciones de redes sociales y analizar el tráfico.

  • Almacenar y/o acceder a información en su dispositivo

    Se puede almacenar o acceder a cookies, identificadores de dispositivo u otra información de su dispositivo para los fines anteriormente indicados.

  • Anuncios y contenido personalizados, medición de anuncios y contenido, percepciones del público, y desarrollo de productos

    Los anuncios y el contenido pueden personalizarse en base a su perfil. Se pueden añadir más datos para personalizar mejor los anuncios y contenidos. Se puede medir el rendimiento de los anuncios y contenidos. Se puede obtener la percepción sobre el público que ha visto los anuncios y contenidos. Dichos datos pueden usarse para desarrollar o mejorar la experiencia del usuario, sistemas y software.

Al hacer clic en ‘Estoy De Acuerdo’ usted permitirá el uso de las cookies, identificadores de dispositivo, balizas web u otras tecnologías similares indicadas. Su configuración puede cambiarse desde el navegador de su dispositivo.

Para ciertos fines, los intereses legítimos pueden ser considerados por encima del consentimiento. Puede leer más sobre ello en nuestra Política de Privacidad y Cookies.